Regional Weather Roundup
Issued by NWS Jackson, KY

Home | Current Version | Previous Version | Graphics & Text | Print | Product List | Glossary On
Versions: 1 2 3 4 5 6 7 8 9 10 11 12 13 14 15 16 17 18 19 20 21 22 23 24 25 26 27
000
ASUS43 KJKL 192010
RWRJKL

EAST KENTUCKY HOURLY WEATHER ROUNDUP
NATIONAL WEATHER SERVICE JACKSON KY
400 PM EDT WED JUL 19 2017

NOTE: "FAIR" INDICATES FEW OR NO CLOUDS BELOW 12,000 FEET WITH
NO SIGNIFICANT WEATHER AND/OR OBSTRUCTIONS TO VISIBILITY.

* THESE REPORTS ARE NOT UNDER NWS QUALITY CONTROL AND MAY NOT
  REPORT WEATHER SUCH AS PRECIPITATION AND FOG.

KYZ079-080-083-085-087-088-110-112-115-119-120-192100
...EASTERN KENTUCKY...

CITY           SKY/WX    TMP DP  RH WIND       PRES   REMARKS
JACKSON        SUNNY     88  66  48 CALM      30.13F HX  90
LONDON         MOSUNNY   90  65  43 NW8       30.13F HX  92
SOMERSET*      SUNNY     88  61  40 W8        30.13S
MONTICELLO*    MOSUNNY   88  71  57 N12       30.14F HX  94
WILLIAMSBURG*  CLEAR     90  66  45 W5        30.12F HX  92
MIDDLESBORO*   PTSUNNY   87  67  50 CALM      30.12F HX  90
HARLAN APT*    CLEAR     90  61  37 CALM      30.14F
PIKE CO APT*     N/A     86  68  54 CALM      30.14F
BIG SANDY APT* CLEAR     89  68  49 CALM      30.12F HX  92
MOREHEAD APT*  PTCLDY    88  66  48 SW7       30.12F HX  90
ASHLAND*         N/A    N/A N/A N/A MISG        N/A
$$

KYZ035-036-041-042-044-050-067-078-099-192100
...CENTRAL KENTUCKY...

CITY           SKY/WX    TMP DP  RH WIND       PRES   REMARKS
MT STERLING*   MOSUNNY   90  68  48 NW8       30.13F HX  93
FLEMING/MASON* PTSUNNY   89  64  43 NW10G17   30.11F HX  90
DANVILLE*      SUNNY     88  63  42 W5        30.13F
LEXINGTON      SUNNY     89  61  38 W9        30.13F
FRANKFORT      MOSUNNY   88  66  48 VRB6      30.11F HX  90
LOUISVILLE     PTSUNNY   95  64  35 N8        30.09F HX  97
LEBANON*         N/A     90  64  43 W5        30.12F HX  91
GLASGOW*       SUNNY     92  63  38 NW7       30.12S HX  93
BOWLING GREEN  MOSUNNY   92  70  48 NW5       30.11F HX  97
$$

KYZ091>093-OHZ055-061-077-WVZ005-015-034-035-042-192100
...SOUTHERN OHIO/WEST VIRGINIA...

CITY           SKY/WX    TMP DP  RH WIND       PRES   REMARKS
COVINGTON      MOSUNNY   87  67  51 N6        30.10F HX  90
COLUMBUS       MOSUNNY   90  63  40 SW12G20   30.08S HX  91
DAYTON         MOSUNNY   87  66  49 W7        30.11F
WILMINGTON     MOSUNNY   88  72  58 W7        30.10F HX  94
HUNTINGTON     MOSUNNY   90  69  50 VRB6      30.08F HX  94
CHARLESTON     MOSUNNY   89  64  43 CALM      30.09F HX  90
PINEVILLE*     MOSUNNY   88  64  44 MISG      30.20S
BECKLEY        MOSUNNY   84  61  45 VRB5      30.19F
BLUEFIELD      MOSUNNY   82  59  45 W9        30.21F
LOGAN CO APT*    N/A     88  66  48 CALM      30.14F HX  90
$$

VAZ002-007-008-TNZ017-027-036-066-071-192100
...SOUTHWEST VIRGINIA/EAST TENNESSEE...

CITY           SKY/WX    TMP DP  RH WIND       PRES   REMARKS
WISE*          PTSUNNY   86  55  35 SW7       30.22F
JONESVILLE*      N/A     90  63  40 CALM      30.15F HX  90
ABINGDON*      PTSUNNY   89  61  38 SW5       30.16F
BRISTOL        MOSUNNY   91  60  35 CALM      30.13F HX  90
MORRISTOWN*    CLEAR     90  66  45 VRB7      30.11F HX  92
SEVIERVILLE*   CLEAR     91  63  38 VRB5      30.10F HX  92
KNOXVILLE      MOSUNNY   91  62  37 VRB6      30.10S HX  91
LAFOLLETTE*    PTCLDY    90  66  45 VRB6      30.15F HX  92
OAK RIDGE      SUNNY     94  65  38 W8        30.12F HX  96
CROSSVILLE     MOSUNNY   86  64  47 NW9       30.19F
NASHVILLE      MOSUNNY   94  71  47 VRB5      30.12F HX 101
$$

...KEY TO REMARKS...
VSB - VISIBILITY IN MILES
WCI - WIND CHILL INDEX
HX  - HEAT INDEX

$$




USA.gov is the U.S. government's official web portal to all federal, state and local government web resources and services.